sat.trackr.live / text

‹ back to catalog

STARLINK-5176

NORAD 54053 · 2022-136C

PAYLOAD ACTIVE UNKNOWN

§ Identity

Operator
Country
US
Launch date
2022-10-20
Launch site
AFETR
Launch vehicle
Mass (kg)
RCS (m²)

Purposes: comms

External: N2YO · Heavens-Above · Gunter

§ Orbital elements

Epoch: 2026-05-25T00:22:14.840256Z

Period
95.44 min
Inclination
53.2149°
Eccentricity
0.0001347
Mean motion
15.08840843 rev/d
Perigee alt
538.8 km
Apogee alt
540.7 km
Semi-major
6,917.9 km
B*
2.7752e-5
RAAN
1.6871°
Arg perigee
89.0165°
Mean anomaly
271.0982°
Rev number
19,836

§ Raw data

STARLINK-51761 54053U 22136C   26145.01544954  .00000154  00000+0  27752-4 0  99972 54053  53.2149   1.6871 0001347  89.0165 271.0982 15.08840843198367

JSON: /api/v1/satellites/54053 · /tle

For live sub-satellite position, see the globe view (requires WebGL).

§ Visibility from observer

Set your observer location to see the next 7 days of passes ≥ 10°. The values pass through the URL so the page stays shareable.

No JS? Fill the form by hand. The geolocation button needs JavaScript.